マクノート彗星

C/2006 K3 ( McNaught )

English version
Home page
Updated on April 3, 2008

---------------------------------------------------------------------

・ プロフィール

発見日 2006年5月22日
発見光度 17.2等
発見者 R. H. McNaught (Siding Spring Survey)

・ 軌道要素

The following orbital elements are taken from MPC 59596:

Epoch 2007 Mar. 1.0 TT = JDT 2454160.5
T 2007 Mar. 13.3671 TT                                  MPC
q   2.501428             (2000.0)            P               Q
z  -0.000336       Peri.  328.0772      +0.5339669      +0.3735484
 +/-0.000005       Node    49.4030      +0.8158337      +0.0079452
e   1.000841       Incl.   92.6197      -0.2220241      +0.9275767
From 175 observations 2006 May 22-2007 Mar. 9, mean residual 0".6.

・ 星図

・ 光度変化

        m1 = 13.4 + 5 logΔ +  1.5 log r  [ ,0]  (              〜2007年 3月13日)
        m1 = 10.0 + 5 logΔ + 10.0 log r  [0, ]  (2007年 3月13日〜              )

        ※ 灰色の曲線は、m1 = 10.0 + 5 logΔ + 10.0 log r の光度曲線です。

---------------------------------------------------------------------

軌道要素はMPCのEphemerides and Orbital Elementsに掲載されたものです。
星図は StellaNavigator Ver.2.0 for Windows (アストロアーツ 編著 / アスキー出版局刊) で作成したものです。
光度グラフはComet for Windowsで作成したものです。

---------------------------------------------------------------------

Copyright(C) Seiichi Yoshida (comet@aerith.net). All rights reserved.